Regional Weather Roundup
Issued by NWS State College, PA

Home | Current Version | Previous Version | Graphics & Text | Print | Product List | Glossary On
Versions: 1 2 3 4 5 6 7 8 9 10 11 12 13 14 15 16 17 18 19 20 21 22 23 24 25 26 27 28 29 30 31 32 33 34 35 36 37 38 39 40 41 42 43 44 45 46 47 48 49 50
000
ASUS41 KCTP 300603
RWRCTP

REGIONAL WEATHER ROUNDUP
NATIONAL WEATHER SERVICE STATE COLLEGE PA
200 AM EDT THU JUL 30 2015

Note: "fair" indicates few or no clouds below 12,000 feet with no
significant weather and/or obstructions to visibility.

* = STATION THAT DOES NOT REPORT PRECIPITATION /E.G. RAIN...SNOW...ETC/
    THUNDER OR FOG.

PAZ002>004-007>009-013>016-020>023-029>032-300700-
WESTERN PENNSYLVANIA

CITY           SKY/WX    TMP DP  RH WIND       PRES   REMARKS
ERIE           LGT RAIN  76  72  87 SW7       29.88F
MEADVILLE      LGT RAIN  75  68  78 VRB5      29.93F
FRANKLIN*      CLOUDY    72  66  83 W7        29.95F
NEW CASTLE     FAIR      76  73  90 CALM      29.94F
BEAVER COUNTY  NOT AVBL
BUTLER*        MOCLDY    73  70  88 W3        29.96S
PITTSBURGH INT CLOUDY    79  70  74 SW6       29.94F
PITTSBURGH     PTCLDY    78  67  68 SW9       29.94F
INDIANA*       CLOUDY    73  72  94 CALM      29.99F
LATROBE        NOT AVBL
WASHINGTON CO* NOT AVBL
$$

PAZ004>006-010>012-017>019-024>028-033>037-041-042-045-046-049>053-300700-
CENTRAL PENNSYLVANIA

CITY           SKY/WX    TMP DP  RH WIND       PRES   REMARKS
BRADFORD       MOCLDY    73  68  84 S6        29.96F
DUBOIS         MOCLDY    73  69  87 SW3       29.96S
CLEARFIELD     MOCLDY    70  68  93 CALM      29.96S
JOHNSTOWN      MOCLDY    72  65  78 SW7       30.01F
ALTOONA        CLOUDY    72  70  93 CALM      29.97F
STATE COLLEGE  MOCLDY    75  71  86 W3        29.95S
WILLIAMSPORT   PTCLDY    73  68  84 CALM      29.90F
SELINSGROVE    PTCLDY    73  72  96 CALM      29.92F
FT INDIANTOWN  CLOUDY    76  74  94 CALM      29.94S
CAPITAL CITY   PTCLDY    79  71  76 CALM      29.93F
HARRISBURG     MOCLDY    79  72  79 VRB7      29.92F
YORK           NOT AVBL
$$

PAZ038>040-043-044-047-048-054-055-060>062-067>071-300700-
EASTERN PENNSYLVANIA

CITY           SKY/WX    TMP DP  RH WIND       PRES   REMARKS
SCRANTON       CLEAR     77  71  82 S5        29.95S
MOUNT POCONO     N/A    N/A N/A N/A MISG      30.01S
ALLENTOWN      PTCLDY    78  72  81 SW6       29.94F
QUAKERTOWN*    PTCLDY    75  73  94 SW3       29.96F
READING        CLEAR     78  73  84 S5        29.93F
LANCASTER      CLEAR     77  73  87 SW7       29.94F
COATESVILLE    PTCLDY    75  75 100 CALM      29.97F
POTTSTOWN      PTCLDY    75  74  96 CALM      29.96F
BLUE BELL      PTCLDY    79  73  83 SW7       29.95S
DOYLESTOWN     CLEAR     75  73  93 VRB3      29.95F
WILLOW GROVE   NOT AVBL
NORTH PHILA    CLEAR     81  70  69 SW7       29.96S
PHILADELPHIA   MOCLDY    80  72  76 SW8       29.95S
$$



USA.gov is the U.S. government's official web portal to all federal, state and local government web resources and services.